Regional Weather Roundup
Issued by NWS

Home | Current Version | Previous Version | Text Only | Print | Product List | Glossary On
Versions: 1 2 3 4 5 6 7 8 9 10 11 12 13 14 15 16 17 18 19 20 21 22 23 24 25 26 27 28 29 30 31 32 33 34 35 36 37 38 39 40 41 42 43 44 45 46 47 48 49 50
000
ASHW40 PHFO 200812
RWRHI

WEATHER ROUNDUP FOR HAWAII
NATIONAL WEATHER SERVICE HONOLULU HI
1000 PM HST SAT AUG 19 2017

THIS IS AN AUTOMATED REPORT THAT HAS NOT BEEN QUALITY CONTROLLED.

NOTE..."FAIR" INDICATES FEW OR NO CLOUDS BELOW 12,000 FEET WITH NO
SIGNIFICANT WEATHER AND/OR OBSTRUCTIONS TO VISIBILITY.

* - THESE SITES REPORT LIMITED FIELDS
# - BUOY DATA PROVIDED BY PACIFIC ISLANDS OCEAN OBSERVING SYSTEM.

HIZ001>004-200900-
KAUAI-NIIHAU-

CITY           SKY/WX    TMP DP  RH WIND       PRES   REMARKS
LIHUE APT      PTCLDY    80  72  76 NE15      30.02R
PORT ALLEN*      N/A     79 N/A N/A E12         N/A
POIPU*           N/A     79 N/A N/A NE8G18      N/A
PRINCEVILLE*     N/A     77 N/A N/A S3          N/A
KOKOLE POINT*  NOT AVBL
MOLOAA DAIRY*    N/A     79  72  78 E3G9        N/A
WAIMEA HTS*    NOT AVBL
PUU OPAE*      NOT AVBL
PUU LUA*       NOT AVBL
MAKAHA RIDGE*  NOT AVBL
$$

HIZ005>011-200900-
OAHU-

CITY           SKY/WX    TMP DP  RH WIND       PRES   REMARKS
HONOLULU       PTCLDY    75  69  81 N6        29.98R
KALAELOA       CLEAR     79  68  69 NE5       30.00R
KANEOHE MCB    NOT AVBL
WHEELER FIELD  MOCLDY    76  68  77 CALM      30.00R
BELLOWS*       NOT AVBL
KAHUKU*        NOT AVBL
WHEELER*       NOT AVBL
WAIANAE HARBOR NOT AVBL
DILLINGHAM*      N/A     90  84  84 NW1         N/A  HX 115
KAHUKU TRN*      N/A     86  84  94 W8G16       N/A  HX 108
KAWAILOA*        N/A     73  68  83 E6G15       N/A
KII*             N/A     79  73  83 E14G20      N/A
MAKUA RANGE*     N/A     72  59  64 W6G13       N/A
OAHU FOREST NW NOT AVBL
SCHOFIELD BRK*   N/A     84  77  79 E1          N/A  HX  94
SCHOFIELD S*   NOT AVBL
WAIANAE VLY*   NOT AVBL
KUAOKALA*      NOT AVBL
HONOULIUULI*   NOT AVBL
MOKUOLOE IS*   NOT AVBL
PALEHUA*       NOT AVBL
WAIAWA PHB*    NOT AVBL
$$

HIZ012>013-200900-
MOLOKAI-

CITY           SKY/WX    TMP DP  RH WIND       PRES   REMARKS
MOLOKAI AIRPT  CLEAR     77  72  84 NE10      30.00R
KALAUPAPA      NOT AVBL
MAKAPULAPAI*   NOT AVBL
MOLOKAI 1*     NOT AVBL
PUU ALII*      NOT AVBL
$$

HIZ016-200900-
KAHOOLAWE-

CITY           SKY/WX    TMP DP  RH WIND       PRES   REMARKS
KAHOOLAWE*     NOT AVBL
HAKIOAWA*      NOT AVBL
HONOKANAIA*      N/A     80  69  70 NE14G24   29.91R
KANELOA*         N/A     75  68  78 E14G28    30.04R
KEALIALALO*    NOT AVBL
LUA MAKIKA*    NOT AVBL
$$

HIZ014>015-200900-
LANAI-

CITY           SKY/WX    TMP DP  RH WIND       PRES   REMARKS
LANAI CITY     MOCLDY    72  68  87 NE8       30.05R
LANAI 1*       NOT AVBL
$$

HIZ017>028-200900-
MAUI-

CITY           SKY/WX    TMP DP  RH WIND       PRES   REMARKS
KAHULUI        PTCLDY    78  69  73 NE14      29.98R
KAPALUA-W MAUI NOT AVBL
HANA AIRPORT   CLOUDY    73  72  94 CALM      30.04R
HANA*          NOT AVBL
HALEAKALA SUMM   N/A     45  43  93 E13         N/A
MAALAEA BAY*   NOT AVBL
HALEAKALA*     NOT AVBL
KAUPO GAP*     NOT AVBL
KULA 1*          N/A     52  44  75 E5          N/A
$$

HIZ023>026-200900-
BIG ISLAND OF HAWAII COAST AND LOWER SLOPES-

CITY           SKY/WX    TMP DP  RH WIND       PRES   REMARKS
KAILUA KONA    MOCLDY    81  72  74 W6        29.95R
HILO           MOCLDY    75  71  87 SW5       30.01R
HONOKAA*         N/A     72 N/A N/A VRB1        N/A
KAWAIHAE MWT*    N/A     81 N/A N/A E3          N/A
KAWAIHAE*      NOT AVBL
SOUTH POINT*     N/A     75 N/A N/A VRB15G22    N/A
UPOLU AIRPORT* NOT AVBL
KAMUELA*         N/A     66  63  88 NE15      30.10R
HAKALAU*         N/A     53  39  59 SW8         N/A
KALOKO-HONOKO* NOT AVBL
PALI 2*          N/A     68  59  73 SW10G17     N/A
KEALAKOMO*       N/A     81  64  57 N15G26      N/A
KAUPULEHU*     NOT AVBL
KAPAPALA*        N/A     67  67 100 VRB3        N/A
LOWER KAHUKU*  NOT AVBL
PUHE CS*       NOT AVBL
PUHO CS*       NOT AVBL
PTA KEAMUKU*     N/A     64  61  88 NE6G14      N/A
WAIKOLOA*      NOT AVBL
$$

HIZ027>028-200900-
BIG ISLAND OF HAWAII INTERIOR AND SUMMMITS-

CITY           SKY/WX    TMP DP  RH WIND       PRES   REMARKS
BRADSHAW FIELD CLEAR     63  48  56 SE12      30.32R
MK VISITOR CEN   N/A     48  43  81 E8          N/A
MAUNA KEA*       N/A     34  -2  21 E9          N/A  WCI  26
MAUNA LOA*       N/A     46   1  15 MISG        N/A
MAUNA LOA 1*   NOT AVBL
PTA KIPUKA*      N/A     72  68  88 NE3         N/A
PTA RANGE 17*    N/A     63  50  63 NW10G18     N/A
PTA WEST*        N/A     61  57  88 SE3         N/A
NENE CABIN*    NOT AVBL
AHUMOA*        NOT AVBL
PTA PORTABLE*  NOT AVBL
PUU MALI*        N/A     57  37  47 S5          N/A
$$

HIC003-200900-
NORTHWEST ISLANDS-

CITY           SKY/WX    TMP DP  RH WIND       PRES   REMARKS
MIDWAY ISLAND  PTCLDY    81  73  78 E15       30.13R
MIDWAY NOS*    NOT AVBL
FRENCH FRIGATE NOT AVBL
$$

PHZ110>124-180-200900-
BUOY REPORTS

STATION/POSITION TIME  TEMP    WIND        PRES    WAVE   SWELL
                       AIR SEA DIR/SP/G            HT/PER HT/DIR
                 (UTC) (F)     (DEG/KT/KT) (MB)    (FT/S) (FT/D)
BUOY 51001       0750   80 81   80/ 14/ 17 1016.8R   5/13   3/120
BUOY 51101       0750   80 81   60/ 14/ 16 1017.1R   4/ 8   3/ 80
BUOY 51100       NOT AVBL
BUOY 51002       0750   80 80   60/ 14/ 17 1013.5R   5/ 8   3/100
BUOY 51003       0750   81 82   50/ 14/ 17 1014.1R   4/ 8   3/ 80
BUOY 51004       0750      80   60/ 14/ 16 1013.4R   5/ 8   3/ 90
WAIMEA BAY#      0702      79                N/A     3/ 8
MOKAPU POINT#    0734      80                N/A     4/ 8   2/160
LANAI#           NOT AVBL
BARBERS PT 2#    NOT AVBL
PAUWELA#         0739      80                N/A     4/ 8
HILO#            0757      81                N/A     4/ 7   2/130
KANEOHE BAY#     NOT AVBL
KANEOHE BAY 2#   NOT AVBL
HANALEI#         0752      81                N/A     4/ 8
KAHULUI HARBOR   0742   79 81   30/ 12/ 14 1015.3R
HONOLULU HARBOR  0748   80 81   40/  3/  7 1016.1R
PEARL HARBOR#    0730      81                N/A     3/13   2/150
KILO NALU        NOT AVBL
HILO HARBOR      0742   77 81  230/  4/  5 1015.7R
MOKUOLOE         0736   80 82   70/ 10/ 13 1015.8R
NAWILIWILI       0748   79      50/ 10/ 12 1016.0R
WHOTS BUOY       NOT AVBL
BUOY 51028       NOT AVBL
$$

......................KEY........................................
  SKY/WX - SKY CONDITIONS/PRESENT WEATHER
  TMP    - TEMPERATURE IN FAHRENHEIT
  DWPT   - DEWPOINT IN FAHRENHEIT
  RH     - RELATIVE HUMIDITY IN PERCENT
  WIND   - DIRECTION AND SPEED /MPH FOR ISLANDS...KTS FOR BUOYS/
  PRES   - MEAN SEA LEVEL PRESSURE IN INCHES OF HG
  VSB    - VISIBILITY IN MILES
  HX     - HEAT INDEX
  WCI    - WIND CHILL INDEX
  VRB    - VARIABLE WIND DIRECTION
  N/A    - NOT AVAILABLE



USA.gov is the U.S. government's official web portal to all federal, state and local government web resources and services.